Weather History for KAOO - December, 2012

Change the Weather History Date:

Monday, December 31, 2012

  Actual Average Record
Temperature  
Mean Temperature 28 °F 27 °F  
Max Temperature 37 °F 34 °F 64 °F (1965)
Min Temperature 19 °F 20 °F -2 °F (1963)
Degree Days  
Heating Degree Days 37 38  
Month to date heating degree days 1065  
Since 1 July heating degree days 2375  
Cooling Degree Days 0 0  
Month to date cooling degree days 0  
Year to date cooling degree days 522  
Moisture  
Dew Point 21 °F    
Average Humidity 70    
Maximum Humidity 81    
Minimum Humidity 42    
Precipitation  
Precipitation 0.00 in 0.06 in 0.60 in (1989)
Month to date precipitation 2.42  
Year to date precipitation 32.63  
Sea Level Pressure  
Sea Level Pressure 30.09 in    
Wind  
Wind Speed 14 mph (WSW)    
Max Wind Speed 23 mph    
Max Gust Speed 31 mph    
Visibility 10 miles    
Events Snow    
T = Trace of Precipitation, MM = Missing Value Source: NWS Daily Summary

Daily Weather History Graph

Daily Weather History Graph

Search for Another Location

Airport or City:

Trip Planner

Search our weather history database for the weather conditions in past years. The results will help you decide how hot, cold, wet, or windy it might be!

Date:

Astronomy

Dec. 31, 2012 Rise Set
Actual Time 7:35 AM EST 4:57 PM EST
Civil Twilight 7:05 AM EST 5:27 PM EST
Nautical Twilight 6:31 AM EST 6:02 PM EST
Astronomical Twilight 5:58 AM EST 6:35 PM EST
Moon 8:26 PM EST (12/31) 9:16 AM EST (12/31)
Length of Visible Light 10h 22m
Length of Day
9h 21m
Waning Gibbous, 90% of the Moon is Illuminated
Dec 31
Waning Gibbous
Jan 4
Last Quarter
Jan 11
New
Jan 18
First Quarter
Jan 26
Full

Hourly Weather History & Observations

Time (EST) Temp. Windchill Dew Point Humidity Pressure Visibility Wind Dir Wind Speed Gust Speed Precip Events Conditions
12:53 AM 24.1 °F 11.5 °F 17.1 °F 75% 30.29 in 10.0 mi WNW 15.0 mph - N/A   Partly Cloudy
1:53 AM 23.0 °F 11.7 °F 16.0 °F 74% 30.27 in 10.0 mi WNW 11.5 mph - N/A   Clear
2:53 AM 21.0 °F 9.9 °F 15.1 °F 78% 30.26 in 10.0 mi West 10.4 mph - N/A   Clear
3:53 AM 23.0 °F 12.4 °F 16.0 °F 74% 30.24 in 10.0 mi WSW 10.4 mph - N/A   Clear
4:53 AM 21.9 °F 10.4 °F 16.0 °F 78% 30.23 in 10.0 mi SW 11.5 mph - N/A   Clear
5:53 AM 19.9 °F 7.9 °F 15.1 °F 81% 30.23 in 10.0 mi SW 11.5 mph - N/A   Clear
6:53 AM 21.9 °F 9.8 °F 15.1 °F 75% 30.22 in 10.0 mi SW 12.7 mph - N/A   Clear
7:53 AM 21.0 °F 10.6 °F 15.1 °F 78% 30.22 in 10.0 mi SSW 9.2 mph - N/A   Clear
8:53 AM 23.0 °F 12.4 °F 17.1 °F 78% 30.21 in 10.0 mi SSW 10.4 mph - N/A   Clear
9:53 AM 27.0 °F 15.6 °F 18.0 °F 69% 30.19 in 10.0 mi SSW 13.8 mph - N/A   Clear
10:53 AM 30.0 °F 20.5 °F 19.0 °F 64% 30.17 in 10.0 mi South 11.5 mph - N/A   Clear
11:53 AM 32.0 °F 24.2 °F 19.9 °F 61% 30.13 in 10.0 mi SSW 9.2 mph - N/A   Clear
12:53 PM 35.1 °F 25.5 °F 19.0 °F 52% 30.09 in 10.0 mi WSW 15.0 mph - N/A   Clear
1:53 PM 37.0 °F 27.0 °F 16.0 °F 42% 30.05 in 10.0 mi WSW 18.4 mph 27.6 mph N/A   Clear
2:53 PM 36.0 °F 30.3 °F 18.0 °F 48% 30.03 in 10.0 mi WSW 6.9 mph - N/A   Clear
3:53 PM 37.0 °F 26.2 °F 16.0 °F 42% 30.02 in 10.0 mi West 21.9 mph 28.8 mph N/A   Clear
4:53 PM 37.0 °F 27.0 °F 26.1 °F 65% 30.03 in 10.0 mi WSW 18.4 mph 26.5 mph N/A   Mostly Cloudy
5:11 PM 35.6 °F 25.5 °F 26.6 °F 70% 29.98 in 10.0 mi WSW 17.3 mph 25.3 mph N/A   Overcast
5:53 PM 35.1 °F 25.9 °F 28.0 °F 76% 30.02 in 10.0 mi WSW 13.8 mph - N/A   Overcast
6:31 PM 33.8 °F 23.2 °F 28.4 °F 81% 29.98 in 2.5 mi West 17.3 mph 23.0 mph 0.00 in Snow Light Snow
6:39 PM 33.8 °F 25.3 °F 28.4 °F 81% 29.97 in 5.0 mi SW 11.5 mph 23.0 mph 0.00 in Snow Light Snow
6:53 PM 35.1 °F 26.9 °F 28.9 °F 78% 30.01 in 9.0 mi SW 11.5 mph - 0.00 in   Overcast
7:53 PM 36.0 °F 26.7 °F 28.0 °F 73% 29.99 in 10.0 mi WSW 15.0 mph 21.9 mph N/A   Overcast
8:53 PM 35.1 °F 25.2 °F 27.0 °F 72% 29.98 in 10.0 mi WSW 16.1 mph 23.0 mph N/A   Overcast
9:53 PM 35.1 °F 25.2 °F 27.0 °F 72% 29.98 in 10.0 mi West 16.1 mph - N/A   Overcast
10:53 PM 34.0 °F 22.1 °F 27.0 °F 75% 29.97 in 10.0 mi West 21.9 mph 28.8 mph N/A   Mostly Cloudy
11:11 PM 33.8 °F 21.6 °F 26.6 °F 75% 29.92 in 10.0 mi West 23.0 mph 28.8 mph N/A   Scattered Clouds
11:40 PM 33.8 °F 23.2 °F 26.6 °F 75% 29.92 in 10.0 mi West 17.3 mph 31.1 mph N/A   Mostly Cloudy
11:53 PM 33.1 °F 20.6 °F 26.1 °F 75% 29.96 in 10.0 mi West 23.0 mph 31.1 mph N/A   Mostly Cloudy